Location: Ajisawe
(8.4333°N, 4.3833°E)
Time: 23:27:32
(UTC+00:00)

Vanguard 1 Rocket - Pass Details

Date: 23 April 2021
Orbit: 652 x 4224 km, 34.3° (Epoch: 10 May)

Event Time Altitude Azimuth Distance (km) Brightness Sun altitude
Rises 18:45:16 0° 311° (NW) 3,216 11.5 -13.6°
Reaches altitude 10° 18:47:15 10° 314° (NW) 2,457 10.6 -14.1°
Maximum altitude 18:52:52 68° 37° (NE) 1,243 7.9 -15.4°
Enters shadow 18:59:27 22° 116° (ESE) 3,075 9.4 -17.0°
